Concordia, KS

7:59 AM CST on November 14, 2019 (GMT -0600)
Blosser Municipal

Weather History for KCNK - September, 2019

Change the Weather History Date:

Tuesday, September 3, 2019

  Actual Average Record
Temperature  
Mean Temperature 83 °F 73 °F  
Max Temperature 92 °F 85 °F 112 °F (1947)
Min Temperature 73 °F 61 °F 40 °F (1974)
Degree Days  
Heating Degree Days 0 1  
Month to date heating degree days 0 1  
Since 1 July heating degree days 0 4  
Cooling Degree Days 18 9  
Month to date cooling degree days 40 27  
Year to date cooling degree days 1317 1193  
Growing Degree Days 32 (Base 50)    
Moisture  
Dew Point 70 °F    
Average Humidity 64    
Maximum Humidity 79    
Minimum Humidity 49    
Precipitation  
Precipitation 0.00 in 0.09 in 2.97 in (2018)
Month to date precipitation 0.00 0.29  
Year to date precipitation 28.84 21.39  
Snow  
Snow 0.00 in 0.00 in 0.00 in ()
Month to date snowfall 0.0 0.0  
Year to date snowfall 32.3 13.7  
Since 1 July snowfall 0.0 0.0  
Snow Depth 0.00 in    
Sea Level Pressure  
Sea Level Pressure 29.91 in    
Wind  
Wind Speed 10 mph (West)    
Max Wind Speed 26 mph    
Max Gust Speed 37 mph    
Visibility 10 miles    
Events      
T = Trace of Precipitation, MM = Missing Value Source: NWS Daily Summary

Daily Weather History Graph

Daily Weather History Graph

Search for Another Location

Airport or City:

Astronomy

Sep. 03, 2019 Rise Set
Actual Time 7:00 AM CDT 7:58 PM CDT
Civil Twilight 6:33 AM CDT 8:26 PM CDT
Nautical Twilight 6:00 AM CDT 8:58 PM CDT
Astronomical Twilight 5:26 AM CDT 9:32 PM CDT
Moon 11:53 AM CDT (9/3) 10:57 PM CDT (9/3)
Length of Visible Light 13h 53m
Length of Day
12h 58m
Waxing Crescent, 25% of the Moon is Illuminated
Sep 3
Waxing Crescent
Sep 5
First Quarter
Sep 13
Full
Sep 21
Last Quarter
Sep 28
New

Hourly Weather History & Observations

Time (CDT) Temp. Heat Index Dew Point Humidity Pressure Visibility Wind Dir Wind Speed Gust Speed Precip Events Conditions
12:55 AM 78.1 °F - 71.1 °F 79% 29.85 in 10.0 mi South 21.9 mph 35.7 mph N/A   Clear
1:55 AM 78.1 °F - 70.0 °F 76% 29.83 in 10.0 mi SSW 23.0 mph 31.1 mph N/A   Clear
2:55 AM 77.0 °F - 69.1 °F 76% 29.84 in 10.0 mi SSW 20.7 mph 31.1 mph N/A   Clear
3:55 AM 77.0 °F - 69.1 °F 76% 29.83 in 10.0 mi SSW 20.7 mph - N/A   Clear
4:55 AM 75.9 °F - 68.0 °F 76% 29.85 in 10.0 mi SW 11.5 mph - N/A   Clear
5:55 AM 75.0 °F - 66.9 °F 76% 29.85 in 10.0 mi SW 11.5 mph - N/A   Clear
6:55 AM 73.9 °F - 66.9 °F 79% 29.86 in 10.0 mi SW 10.4 mph - N/A   Clear
7:55 AM 75.0 °F - 66.9 °F 76% 29.86 in 10.0 mi SW 10.4 mph - N/A   Clear
8:55 AM 78.1 °F - 68.0 °F 71% 29.86 in 10.0 mi SW 11.5 mph - N/A   Clear
9:55 AM 82.0 °F 84.9 °F 68.0 °F 62% 29.90 in 10.0 mi West 12.7 mph - N/A   Clear
10:55 AM 82.9 °F 86.5 °F 69.1 °F 63% 29.91 in 10.0 mi West 6.9 mph - N/A   Clear
11:55 AM 86.0 °F 90.7 °F 70.0 °F 59% 29.91 in 10.0 mi West 5.8 mph - N/A   Clear
12:55 PM 88.0 °F 92.9 °F 70.0 °F 55% 29.90 in 10.0 mi SW 5.8 mph - N/A   Clear
1:55 PM 91.0 °F 96.6 °F 70.0 °F 50% 29.90 in 10.0 mi Calm Calm - N/A   Clear
2:55 PM 91.0 °F 97.6 °F 71.1 °F 52% 29.90 in 10.0 mi NE 6.9 mph - N/A   Clear
3:55 PM 91.0 °F 97.6 °F 71.1 °F 52% 29.90 in 10.0 mi ENE 6.9 mph - N/A   Clear
4:55 PM 90.0 °F 97.9 °F 73.0 °F 57% 29.91 in 10.0 mi NE 11.5 mph - N/A   Clear
5:55 PM 87.1 °F 94.5 °F 73.0 °F 63% 29.93 in 10.0 mi NE 10.4 mph - N/A   Clear
6:55 PM 84.9 °F 91.4 °F 73.0 °F 67% 29.95 in 10.0 mi NE 12.7 mph 23.0 mph N/A   Clear
7:55 PM 82.0 °F 86.7 °F 72.0 °F 71% 29.97 in 10.0 mi NNE 11.5 mph - N/A   Clear
8:55 PM 79.0 °F - 68.0 °F 69% 29.99 in 10.0 mi NE 8.1 mph - N/A   Clear
9:55 PM 75.0 °F - 68.0 °F 79% 30.01 in 10.0 mi NE 6.9 mph - N/A   Clear
10:55 PM 75.0 °F - 66.9 °F 76% 30.04 in 10.0 mi NNE 6.9 mph - N/A   Mostly Cloudy
11:55 PM 73.0 °F - 66.9 °F 81% 30.05 in 10.0 mi NE 9.2 mph - N/A   Scattered Clouds